Flag for Micronesia Weather past 2 weeks in Palikir, Pohnpei, Micronesia

Now
83 °F

Sprinkles. Mostly cloudy.


Feels Like: 96 °F
Forecast: 77 / 83 °F
Wind: 6 mph from Southwest

Location: Pohnpei

Current Time: Sep 5, 2015 at 7:57:43 PM

Latest Report: Sep 5, 2015 at 6:54 PM


Visibility: 14 mi

Pressure: 29.84 "Hg

Humidity: 94%

Dew point: 81 °F

Location of PalikirLocation

Historic Weather in Palikir — Graph

°F

Palikir temperature yesterday

Maximum temperature yesterday: 89 °F (at 2:50 PM)
Minimum temperature yesterday: 76 °F (at 2:52 AM)
Average temperature yesterday: 82 °F

Past Weeks' High & Low Weather Summary

 TemperatureHumidityPressure
High91 °F (Sep 1, 11:55 AM)100% (Sep 2, 6:01 AM)29.97 "Hg (Sep 2, 6:01 AM)
Low74 °F (Aug 22, 1:53 AM)67% (Aug 30, 10:53 AM)29.75 "Hg (Aug 27, 3:50 PM)
Average81 °F87%29.86 "Hg
* Reported Aug 21 6:50 PM — Sep 5 6:54 PM, Palikir, Weather by CustomWeather, © 2015

Note: Actual official high and low records may vary slightly from our data, if they occured in-between our weather recording intervals... More about our weather records

Advertising

Palikir weather history for previous 24 hours

 ConditionsComfort  
Time TempWeatherWind HumidityBarometerVisibility
6:54 PM
Sat, Sep 5
83 °FSprinkles. Mostly cloudy.6 mph94%29.84 "Hg14 mi
5:50 PM83 °FMostly cloudy.7 mph92%29.83 "Hg15 mi
4:50 PM84 °FMostly cloudy.9 mph79%29.81 "Hg15 mi
3:52 PM85 °FCloudy.9 mph81%29.81 "Hg15 mi
2:53 PM86 °FCloudy.7 mph80%29.81 "Hg15 mi
1:52 PM86 °FCloudy.7 mph78%29.83 "Hg15 mi
12:52 PM87 °FMore clouds than sun.8 mph73%29.85 "Hg15 mi
11:52 AM88 °FBroken clouds.8 mph73%29.87 "Hg15 mi
10:53 AM88 °FBroken clouds.12 mph73%29.89 "Hg15 mi
9:51 AM85 °FCloudy.8 mph81%29.91 "Hg15 mi
8:54 AM85 °FCloudy.7 mph77%29.92 "Hg15 mi
7:54 AM83 °FMore clouds than sun.8 mph82%29.90 "Hg15 mi
6:54 AM81 °FMore clouds than sun.7 mph88%29.88 "Hg15 mi
5:54 AM80 °FMostly cloudy.8 mph91%29.88 "Hg15 mi
4:53 AM80 °FMostly cloudy.3 mph90%29.86 "Hg15 mi
3:53 AM80 °FMostly cloudy.5 mph88%29.86 "Hg15 mi
2:52 AM80 °FMostly cloudy.3 mph86%29.88 "Hg15 mi
1:53 AM80 °FMostly cloudy.5 mph86%29.89 "Hg15 mi
12:56 AM80 °FMostly cloudy.5 mph86%29.90 "Hg15 mi
11:52 PM
Fri, Sep 4
81 °FMostly cloudy.7 mph87%29.91 "Hg15 mi
10:54 PM81 °FMostly cloudy.5 mph84%29.93 "Hg15 mi
9:51 PM82 °FMostly cloudy.7 mph81%29.93 "Hg15 mi
8:58 PM82 °FMostly cloudy.5 mph81%29.92 "Hg15 mi
7:50 PM82 °FPassing clouds.5 mph82%29.90 "Hg15 mi
Weather by CustomWeather, © 2015

See weather overviewHow to use our weather pages